Flag for Russia Weather past 2 weeks in Barnaul, Russia

Now
70 °F

Passing clouds.


Feels Like: 70 °F
Forecast: 51 / 79 °F
Wind: 13 mph from South

Location: Barnaul Airport

Current Time: Aug 29, 2015 at 12:38:15 PM

Latest Report: Aug 29, 2015 at 12:00 PM


Visibility: N/A

Pressure: 30.15 "Hg

Humidity: 27%

Dew point: 34 °F

Location of BarnaulLocation

Historic Weather in Barnaul — Graph

°F

Barnaul temperature yesterday

Maximum temperature yesterday: 66 °F (at 1:30 PM)
Minimum temperature yesterday: 48 °F (at 2:30 AM)
Average temperature yesterday: 57 °F

Past Weeks' High & Low Weather Summary

 TemperatureHumidityPressure
High90 °F (Aug 19, 2:00 PM)94% (Aug 14, 11:00 AM)30.21 "Hg (Aug 14, 11:00 AM)
Low48 °F (Aug 15, 5:00 AM)17% (Aug 19, 4:00 PM)29.42 "Hg (Aug 21, 5:30 AM)
Average64 °F58%29.88 "Hg
* Reported Aug 14 11:00 AM — Aug 29 11:30 AM, Barnaul, Weather by CustomWeather, © 2015

Note: Actual official high and low records may vary slightly from our data, if they occured in-between our weather recording intervals... More about our weather records

Advertising

Barnaul weather history for previous 24 hours

 ConditionsComfort  
Time TempWeatherWind HumidityBarometerVisibility
11:30 AM
Sat, Aug 29
68 °FSunny.13 mph28%30.15 "Hg10 mi
11:00 AM68 °FSunny.13 mph28%30.18 "Hg10 mi
10:30 AM66 °FSunny.13 mph30%30.18 "Hg10 mi
10:00 AM66 °FSunny.10 mph32%30.18 "Hg10 mi
9:30 AM64 °FSunny.10 mph34%30.18 "Hg10 mi
9:00 AM61 °FSunny.8 mph45%30.18 "Hg10 mi
8:30 AM59 °FSunny.10 mph48%30.18 "Hg10 mi
8:00 AM55 °FSunny.8 mph51%30.18 "Hg10 mi
7:30 AM54 °FSunny.10 mph54%30.18 "Hg10 mi
7:00 AM54 °FSunny.10 mph51%30.18 "Hg10 mi
6:30 AM52 °FSunny.10 mph54%30.18 "Hg10 mi
6:00 AM52 °FSunny.10 mph54%30.18 "Hg10 mi
5:30 AM50 °FSunny.8 mph54%30.18 "Hg10 mi
5:00 AM52 °FClear.8 mph50%30.18 "Hg10 mi
4:30 AM52 °FClear.8 mph50%30.18 "Hg10 mi
4:00 AM52 °FClear.8 mph50%30.18 "Hg10 mi
3:30 AM54 °FClear.8 mph47%30.18 "Hg10 mi
3:00 AM54 °FClear.6 mph47%30.18 "Hg10 mi
2:30 AM54 °FClear.6 mph47%30.18 "Hg10 mi
2:00 AM55 °FClear.6 mph44%30.18 "Hg10 mi
1:30 AM54 °FClear.6 mph51%30.18 "Hg10 mi
1:00 AM54 °FClear.6 mph51%30.18 "Hg10 mi
12:30 AM54 °FClear.3 mph51%30.18 "Hg10 mi
12:00 AM55 °FClear.3 mph47%30.18 "Hg10 mi
11:30 PM
Fri, Aug 28
57 °FClear.6 mph44%30.18 "Hg10 mi
11:00 PM57 °FClear.3 mph44%30.18 "Hg10 mi
10:30 PM57 °FClear.6 mph44%30.18 "Hg10 mi
10:00 PM57 °FClear.3 mph44%30.18 "Hg10 mi
9:30 PM57 °FClear.3 mph44%30.18 "Hg10 mi
9:00 PM57 °FClear.1 mph44%30.18 "Hg10 mi
8:30 PM59 °FClear.No wind42%30.18 "Hg10 mi
8:00 PM59 °FClear.1 mph42%30.18 "Hg10 mi
7:30 PM59 °FPassing clouds.3 mph45%30.18 "HgN/A
7:00 PM61 °FPassing clouds.3 mph42%30.18 "HgN/A
6:30 PM61 °FPartly sunny.1 mph45%30.15 "HgN/A
6:00 PM64 °FPartly sunny.1 mph37%30.15 "HgN/A
5:30 PM63 °FPartly sunny.3 mph37%30.15 "HgN/A
5:00 PM66 °FPartly sunny.1 mph30%30.15 "HgN/A
4:30 PM66 °FPartly sunny.6 mph35%30.15 "HgN/A
4:00 PM64 °FPartly sunny.6 mph37%30.15 "HgN/A
3:30 PM64 °FPartly sunny.3 mph32%30.15 "HgN/A
3:00 PM64 °FPartly sunny.6 mph34%30.15 "HgN/A
2:30 PM66 °FPartly sunny.6 mph32%30.15 "HgN/A
2:00 PM66 °FPartly sunny.6 mph32%30.15 "HgN/A
1:30 PM66 °FPartly sunny.6 mph32%30.18 "HgN/A
1:00 PM64 °FPartly sunny.6 mph34%30.18 "HgN/A
12:30 PM64 °FScattered clouds.6 mph34%30.18 "HgN/A
12:00 PM63 °FScattered clouds.3 mph39%30.18 "HgN/A
Weather by CustomWeather, © 2015

See weather overviewHow to use our weather pages